Weather History for KUIL - February, 2013

Change the Weather History Date:

Monday, February 25, 2013

  Actual Average Record
Temperature  
Mean Temperature 44 °F 42 °F  
Max Temperature 51 °F 50 °F 67 °F (1992)
Min Temperature 37 °F 35 °F 20 °F (1993)
Degree Days  
Heating Degree Days 21 22  
Month to date heating degree days 522 574  
Since 1 July heating degree days 3630 3779  
Cooling Degree Days 0 0  
Month to date cooling degree days 0 0  
Year to date cooling degree days 0 0  
Moisture  
Dew Point 36 °F    
Average Humidity 70    
Maximum Humidity 83    
Minimum Humidity 56    
Precipitation  
Precipitation 0.10 in 0.37 in 1.43 in (1977)
Month to date precipitation 9.63 9.27  
Year to date precipitation 19.97 23.88  
Sea Level Pressure  
Sea Level Pressure 30.05 in    
Wind  
Wind Speed 13 mph (West)    
Max Wind Speed 29 mph    
Max Gust Speed 38 mph    
Visibility 4 miles    
Events Rain    
T = Trace of Precipitation, MM = Missing Value Source: NWS Daily Summary

Daily Weather History Graph

Daily Weather History Graph

Search for Another Location

Airport or City:

Trip Planner

Search our weather history database for the weather conditions in past years. The results will help you decide how hot, cold, wet, or windy it might be!

Date:

Astronomy

Feb. 25, 2013 Rise Set
Actual Time 7:05 AM PST 5:57 PM PST
Civil Twilight 6:34 AM PST 6:28 PM PST
Nautical Twilight 5:58 AM PST 7:04 PM PST
Astronomical Twilight 5:23 AM PST 7:40 PM PST
Moon 6:21 PM PST (2/25) 6:36 AM PST (2/25)
Length of Visible Light 11h 53m
Length of Day
10h 51m
Full, 100% of the Moon is Illuminated
Feb 25
Full
Feb 25
Full
Mar 4
Last Quarter
Mar 11
New
Mar 19
First Quarter

Hourly Weather History & Observations

Time (PST) Temp. Windchill Dew Point Humidity Pressure Visibility Wind Dir Wind Speed Gust Speed Precip Events Conditions
12:04 AM 44.6 °F 39.7 °F 41.0 °F 87% 29.86 in 2.5 mi WSW 9.2 mph - 0.01 in Rain Light Rain
12:15 AM 44.6 °F 38.1 °F 39.2 °F 81% 29.86 in 5.0 mi WSW 13.8 mph 20.7 mph 0.01 in   Haze
12:53 AM 45.0 °F 39.7 °F 39.9 °F 82% 29.88 in 4.0 mi West 10.4 mph 19.6 mph 0.01 in Rain Light Rain
1:53 AM 45.0 °F 38.2 °F 39.0 °F 80% 29.88 in 5.0 mi West 15.0 mph - 0.00 in   Haze
2:10 AM 44.6 °F 37.8 °F 37.4 °F 76% 29.88 in 2.0 mi WSW 15.0 mph 28.8 mph 0.02 in Rain Light Rain
2:16 AM 44.6 °F 37.8 °F 39.2 °F 81% 29.88 in 5.0 mi West 15.0 mph 24.2 mph 0.02 in   Haze
2:24 AM 44.6 °F 38.4 °F 39.2 °F 81% 29.88 in 5.0 mi WSW 12.7 mph - 0.02 in   Haze
2:35 AM 44.6 °F 35.9 °F 39.2 °F 81% 29.89 in 2.5 mi West 23.0 mph 28.8 mph 0.02 in Rain Light Rain
2:43 AM 42.8 °F 35.4 °F 37.4 °F 81% 29.89 in 1.8 mi West 15.0 mph 28.8 mph 0.04 in Rain Light Rain
2:46 AM 42.8 °F 36.2 °F 37.4 °F 81% 29.89 in 3.0 mi West 12.7 mph 27.6 mph 0.04 in Rain Light Rain
2:53 AM 44.1 °F 38.6 °F 37.9 °F 79% 29.90 in 5.0 mi West 10.4 mph 19.6 mph 0.04 in   Haze
3:31 AM 42.8 °F 34.8 °F 37.4 °F 81% 29.91 in 1.8 mi West 17.3 mph 23.0 mph 0.02 in Rain Rain
3:41 AM 42.8 °F 35.8 °F 37.4 °F 81% 29.90 in 3.0 mi West 13.8 mph 26.5 mph 0.04 in Rain Light Rain
3:48 AM 42.8 °F 35.8 °F 37.4 °F 81% 29.91 in 4.0 mi West 13.8 mph 23.0 mph 0.04 in Rain Light Rain
3:53 AM 43.0 °F 35.4 °F 37.9 °F 82% 29.91 in 2.5 mi West 16.1 mph 27.6 mph 0.04 in Rain Light Rain
4:03 AM 42.8 °F 35.1 °F 37.4 °F 81% 29.91 in 3.0 mi WSW 16.1 mph 24.2 mph 0.01 in Rain Light Rain
4:15 AM 44.6 °F 36.6 °F 37.4 °F 76% 29.91 in 3.0 mi West 19.6 mph 25.3 mph 0.01 in Rain Light Rain
4:53 AM 44.1 °F 36.8 °F 37.9 °F 79% 29.93 in 5.0 mi West 16.1 mph 23.0 mph 0.02 in   Haze
5:21 AM 44.6 °F 37.2 °F 37.4 °F 76% 29.94 in 4.0 mi West 17.3 mph 23.0 mph 0.00 in Rain Light Rain
5:53 AM 45.0 °F 37.9 °F 39.0 °F 80% 29.96 in 4.0 mi West 16.1 mph 31.1 mph 0.00 in   Haze
6:11 AM 44.6 °F 36.9 °F 37.4 °F 76% 29.96 in 4.0 mi West 18.4 mph 28.8 mph N/A   Haze
6:22 AM 44.6 °F 35.5 °F 37.4 °F 76% 29.97 in 4.0 mi West 25.3 mph 35.7 mph N/A   Haze
6:32 AM 44.6 °F 37.4 °F 37.4 °F 76% 29.97 in 5.0 mi West 16.1 mph 32.2 mph N/A   Haze
6:53 AM 45.0 °F 37.4 °F 37.0 °F 74% 29.99 in 4.0 mi West 18.4 mph 36.8 mph N/A   Haze
7:53 AM 45.0 °F 36.6 °F 34.0 °F 65% 30.01 in 3.0 mi West 21.9 mph 34.5 mph 0.00 in   Haze
8:53 AM 45.0 °F 37.4 °F 33.1 °F 63% 30.06 in 3.0 mi West 18.4 mph 26.5 mph N/A   Haze
9:53 AM 46.0 °F 38.3 °F 34.0 °F 63% 30.08 in 3.0 mi West 20.7 mph 28.8 mph 0.00 in Rain Light Rain
10:53 AM 48.0 °F - 33.1 °F 56% 30.11 in 3.0 mi West 13.8 mph 33.4 mph 0.00 in   Haze
11:53 AM 48.0 °F - 33.1 °F 56% 30.14 in 4.0 mi West 12.7 mph 25.3 mph N/A   Haze
12:53 PM 48.0 °F - 34.0 °F 58% 30.15 in 4.0 mi West 13.8 mph 27.6 mph N/A   Haze
1:53 PM 48.9 °F - 35.1 °F 59% 30.17 in 4.0 mi West 17.3 mph 24.2 mph 0.00 in   Haze
2:53 PM 48.9 °F - 36.0 °F 61% 30.19 in 4.0 mi West 19.6 mph 24.2 mph N/A   Haze
3:01 PM 48.2 °F - 35.6 °F 62% 30.19 in 4.0 mi West 13.8 mph 26.5 mph N/A   Haze
3:12 PM 48.2 °F - 35.6 °F 62% 30.19 in 4.0 mi West 15.0 mph 24.2 mph N/A   Haze
3:53 PM 48.0 °F - 36.0 °F 63% 30.20 in 4.0 mi West 13.8 mph 21.9 mph N/A   Haze
4:53 PM 46.0 °F 39.9 °F 34.0 °F 63% 30.23 in 4.0 mi West 13.8 mph 25.3 mph N/A   Haze
5:53 PM 45.0 °F 40.6 °F 35.1 °F 68% 30.24 in 4.0 mi West 8.1 mph - N/A   Haze
6:53 PM 44.1 °F 40.1 °F 34.0 °F 68% 30.26 in 5.0 mi Variable 6.9 mph - N/A   Haze
7:53 PM 44.1 °F 41.5 °F 34.0 °F 68% 30.27 in 5.0 mi West 4.6 mph - N/A   Haze
8:53 PM 43.0 °F 39.5 °F 34.0 °F 71% 30.28 in 4.0 mi West 5.8 mph - N/A   Haze
9:53 PM 42.1 °F 40.2 °F 34.0 °F 73% 30.29 in 4.0 mi West 3.5 mph - N/A   Haze
10:53 PM 39.0 °F 35.7 °F 34.0 °F 82% 30.29 in 4.0 mi SE 4.6 mph - N/A   Haze
11:19 PM 39.2 °F - 33.8 °F 81% 30.29 in 4.0 mi Calm Calm - N/A   Haze
11:53 PM 37.9 °F - 33.1 °F 83% 30.30 in 4.0 mi Calm Calm - N/A   Haze